This is the latest recevied weather packets stored in our database for station/object KC8YYF. If no packets are shown the sender has not sent any weather packets the latest 10 day(s).
| Time | Temp. | Humidity | Pressure | Rain* | Wind** | Luminosity | Snow |
|---|---|---|---|---|---|---|---|
| 1777595488 | 7.78° C | 76% | 1015.1 hPa | 0 mm | - | 0 W/m² | - |
| 1777595185 | 7.78° C | 77% | 1015.2 hPa | 0 mm | - | 0 W/m² | - |
| 1777594881 | 8.33° C | 77% | 1015.2 hPa | 0 mm | - | 0 W/m² | - |
| 1777594578 | 8.33° C | 77% | 1015.4 hPa | 0 mm | - | 0 W/m² | - |
| 1777594274 | 8.89° C | 73% | 1015.4 hPa | 0 mm | - | 0 W/m² | - |
| 1777593970 | 8.89° C | 76% | 1015.3 hPa | 0 mm | - | 0 W/m² | - |
| 1777593666 | 9.44° C | 78% | 1015.3 hPa | 0 mm | - | 1 W/m² | - |
| 1777593362 | 10° C | 76% | 1015.3 hPa | 0 mm | - | 6 W/m² | - |
| 1777593061 | 10° C | 68% | 1015.5 hPa | 0 mm | - | 6 W/m² | - |
| 1777592760 | 10° C | 68% | 1015.5 hPa | 0 mm | - | 4 W/m² | - |
| 1777592457 | 10.56° C | 69% | 1015.4 hPa | 0 mm | - | 10 W/m² | - |
| 1777592152 | 10.56° C | 65% | 1015.5 hPa | 0 mm | - | 10 W/m² | - |
| 1777591849 | 11.11° C | 59% | 1015 hPa | 0 mm | - | 11 W/m² | - |
| 1777591545 | 11.11° C | 68% | 1015.3 hPa | 0 mm | - | 13 W/m² | - |
| 1777591242 | 11.11° C | 65% | 1015.1 hPa | 0 mm | - | 12 W/m² | - |
| 1777590937 | 11.11° C | 62% | 1015.4 hPa | 0 mm | - | 15 W/m² | - |
| 1777590632 | 11.11° C | 62% | 1015.2 hPa | 0 mm | - | 10 W/m² | - |
| 1777590329 | 11.11° C | 58% | 1015.2 hPa | 0 mm | - | 17 W/m² | - |
| 1777590027 | 11.67° C | 56% | 1015.2 hPa | 0 mm | - | 11 W/m² | - |
| 1777589723 | 11.11° C | 56% | 1015.1 hPa | 0 mm | - | 28 W/m² | - |
| 1777589421 | 11.11° C | 62% | 1015.3 hPa | 0 mm | - | 54 W/m² | - |
| 1777589117 | 11.11° C | 58% | 1015.2 hPa | 0 mm | - | 29 W/m² | - |
| 1777588813 | 11.11° C | 59% | 1015.3 hPa | 0 mm | - | 18 W/m² | - |
| 1777588509 | 11.11° C | 63% | 1015.2 hPa | 0 mm | - | 16 W/m² | - |
| 1777588204 | 11.11° C | 57% | 1015.2 hPa | 0 mm | - | 16 W/m² | - |
* Rain latest hour (hover to see other rain measurements)
** Current wind speed in m/s (hover to see current wind gust speed)